TimeHST,TemperatureF,Dew PointF,Humidity,Sea Level PressureIn,VisibilityMPH,Wind Direction,Wind SpeedMPH,Gust SpeedMPH,PrecipitationIn,Events,Conditions,WindDirDegrees,DateUTC
12:53 AM,73.9,60.1,62,30.03,10.0,North,4.6,-,N/A,,Clear,10,2012-11-16 10:53:00
1:53 AM,73.0,57.0,57,30.01,10.0,ENE,4.6,-,N/A,,Clear,60,2012-11-16 11:53:00
2:53 AM,73.0,60.1,64,30.00,10.0,ENE,4.6,-,N/A,,Clear,70,2012-11-16 12:53:00
3:53 AM,72.0,61.0,68,29.99,10.0,ENE,4.6,-,N/A,,Clear,60,2012-11-16 13:53:00
4:53 AM,73.0,59.0,61,30.00,10.0,NNE,4.6,-,N/A,,Clear,20,2012-11-16 14:53:00
5:53 AM,72.0,61.0,68,30.01,10.0,ENE,4.6,-,N/A,,Scattered Clouds,60,2012-11-16 15:53:00
6:53 AM,72.0,59.0,64,30.03,10.0,NE,3.5,-,N/A,,Clear,40,2012-11-16 16:53:00
7:53 AM,75.0,63.0,66,30.04,10.0,NNE,3.5,-,N/A,,Clear,30,2012-11-16 17:53:00
8:53 AM,78.1,62.1,58,30.06,10.0,NE,4.6,-,N/A,,Scattered Clouds,40,2012-11-16 18:53:00
9:53 AM,81.0,64.0,56,30.06,10.0,South,10.4,-,N/A,,Partly Cloudy,180,2012-11-16 19:53:00
10:53 AM,81.0,64.0,56,30.04,10.0,SSW,9.2,-,N/A,,Partly Cloudy,200,2012-11-16 20:53:00
11:53 AM,82.0,63.0,52,30.03,10.0,SSW,9.2,-,N/A,,Clear,200,2012-11-16 21:53:00
12:53 PM,82.9,64.0,53,30.00,10.0,SSW,9.2,-,N/A,,Partly Cloudy,210,2012-11-16 22:53:00
1:53 PM,82.0,64.0,54,29.98,10.0,South,10.4,-,N/A,,Partly Cloudy,190,2012-11-16 23:53:00
2:53 PM,80.1,64.0,58,29.97,10.0,South,9.2,-,N/A,,Mostly Cloudy,180,2012-11-17 00:53:00
3:53 PM,79.0,63.0,58,29.98,10.0,South,8.1,-,N/A,,Partly Cloudy,190,2012-11-17 01:53:00
4:53 PM,79.0,64.0,60,29.99,10.0,South,6.9,-,N/A,,Mostly Cloudy,170,2012-11-17 02:53:00
5:53 PM,78.1,64.0,62,30.00,10.0,SSE,5.8,-,N/A,,Scattered Clouds,150,2012-11-17 03:53:00
6:53 PM,78.1,64.0,62,30.02,10.0,South,5.8,-,N/A,,Mostly Cloudy,180,2012-11-17 04:53:00
7:53 PM,78.1,63.0,60,30.03,10.0,SSE,6.9,-,N/A,,Clear,150,2012-11-17 05:53:00
8:53 PM,77.0,59.0,54,30.04,10.0,East,6.9,-,N/A,,Clear,100,2012-11-17 06:53:00
9:53 PM,75.9,59.0,56,30.04,10.0,East,3.5,-,N/A,,Partly Cloudy,100,2012-11-17 07:53:00
10:53 PM,75.9,60.1,58,30.05,10.0,Calm,Calm,-,N/A,,Mostly Cloudy,0,2012-11-17 08:53:00
11:53 PM,75.0,60.1,60,30.04,10.0,NE,4.6,-,N/A,,Scattered Clouds,40,2012-11-17 09:53:00